Lid_Strength_Index
10 13 14 13 12 11 12 13 14 11 9 12 11 11 11 9 9 9 9 9 8 8 8 7 4 3 4 5 5 4 3 2 1 2 2 2 2 1 1 0 -0 0 -0 0
12 14 11 10 10 11 12 13 13 11 9 11 11 12 10 10 9 9 9 9 8 8 8 5 4 4 5 5 5 5 3 3 2 2 3 3 3 2 1 1 0 -0 -0 0
14 12 9 10 11 11 12 13 12 12 10 10 12 13 11 10 9 8 8 9 9 8 8 5 4 4 4 4 3 3 4 4 5 3 3 4 4 3 3 3 2 2 1 0
12 10 10 11 11 11 13 10 10 11 12 15 11 16 12 11 10 10 9 10 9 8 8 7 4 5 4 3 3 4 4 5 6 4 3 3 4 5 4 3 2 3 2 1
13 12 11 12 11 8 11 8 11 11 13 15 14 17 14 11 11 10 10 9 9 9 8 8 4 4 3 4 4 3 4 4 3 2 2 3 4 4 4 3 3 3 2 2
12 9 10 10 8 8 8 10 11 13 15 18 14 15 14 12 11 10 9 8 7 7 8 8 6 3 4 4 4 4 4 3 3 3 3 3 3 4 3 3 3 3 3 2
12 11 8 7 10 9 10 13 19 19 19 18 13 15 13 11 9 8 8 8 8 8 7 8 5 4 4 5 4 4 4 4 3 3 3 3 3 3 3 3 3 3 2 2
15 15 10 8 10 12 13 13 18 22 21 18 14 17 13 9 7 7 7 8 8 8 9 8 5 4 4 4 4 3 3 4 3 3 3 3 3 3 3 3 2 3 2 2
15 15 9 8 8 9 13 16 11 17 16 19 17 13 9 8 9 8 7 7 8 8 7 7 7 7 6 5 5 4 4 4 3 3 3 3 3 3 3 3 3 3 2 1
11 16 10 9 8 9 11 10 16 16 22 23 18 17 15 11 10 9 8 9 8 7 7 7 8 7 7 6 5 5 4 3 4 3 3 3 3 3 3 3 3 3 3 2
11 13 13 10 12 13 13 14 14 14 16 21 22 18 10 11 10 9 8 8 8 7 7 7 6 6 6 7 7 5 5 4 5 4 4 3 3 3 2 3 3 2 3 2
10 12 16 13 9 8 10 12 13 18 18 16 17 17 9 9 8 8 8 7 6 7 6 6 6 6 6 7 7 6 6 6 5 4 5 4 4 4 3 3 3 3 2 1
10 14 17 15 13 11 13 12 12 13 13 17 20 17 8 8 8 8 8 7 6 5 5 5 6 6 6 5 6 6 5 5 4 4 4 4 3 3 3 3 4 3 2 2
8 14 15 17 14 13 14 12 11 13 17 16 16 14 11 10 9 8 8 7 7 6 5 5 5 5 5 5 5 5 5 5 5 5 5 4 4 4 4 4 3 3 2 2
11 14 13 12 11 11 12 12 12 14 13 16 14 14 12 10 9 8 8 7 7 6 6 5 5 5 5 5 5 5 5 5 5 5 5 5 5 5 5 4 4 4 4 3
12 15 14 14 11 11 13 12 12 12 12 12 12 13 10 8 8 8 8 8 8 7 6 6 5 6 6 6 5 5 5 5 5 5 5 4 4 4 4 4 5 5 5 5
13 15 15 16 12 13 16 14 13 12 11 12 15 12 9 9 9 8 9 8 7 7 6 7 7 7 7 7 6 6 6 5 5 5 5 4 4 4 4 4 5 5 5 5
14 14 15 17 14 20 13 9 10 11 11 10 10 10 8 8 8 8 7 7 7 7 7 7 7 6 6 6 6 6 6 5 5 5 5 4 4 4 4 5 5 5 5 5
12 13 14 17 18 14 13 11 11 12 12 10 10 9 9 8 8 9 7 7 7 8 7 6 5 5 6 6 5 6 6 6 6 5 5 4 4 4 5 5 5 5 6 6
10 10 13 15 18 21 13 9 7 9 15 8 9 9 9 9 12 10 8 6 6 6 5 5 5 6 6 6 5 6 6 6 6 6 5 4 4 4 4 4 5 5 6 5
14 15 17 16 17 15 10 8 7 15 15 9 9 9 9 10 9 8 7 7 6 6 6 6 7 7 6 6 6 7 6 7 6 5 5 5 4 4 4 4 5 5 5 5
15 16 16 15 17 19 8 9 13 11 9 9 10 10 10 9 9 9 8 8 9 9 9 9 9 9 8 7 7 8 8 6 5 5 5 5 4 4 4 5 4 5 5 5
15 12 15 14 15 10 9 10 8 8 10 10 10 9 9 9 9 9 10 11 10 10 10 10 11 11 10 9 9 10 9 7 6 6 5 5 5 4 3 4 5 5 5 4
10 9 14 12 11 10 9 8 8 8 9 9 9 9 9 9 10 12 12 12 12 11 11 11 11 12 12 11 10 10 10 8 7 8 7 5 4 4 4 4 4 4 4 4
10 10 12 13 11 10 9 8 9 9 8 9 8 9 9 10 11 12 13 12 12 12 11 11 12 12 13 13 12 10 10 9 8 7 7 5 4 4 4 3 4 3 3 4
10 12 16 16 12 10 10 9 9 9 9 9 9 10 10 10 12 13 14 14 13 15 13 11 11 10 10 9 13 12 10 9 8 8 7 7 5 4 4 3 4 7 6 6